This demonstration page uses our WeatherBlox Daily Observations layout. Learn more.

Left ArrowRight Arrow

Hourly Observations for January 27, 2020

Temp ( °F °C ) Dew Point ( °F °C ) Humidity (%) Winds ( mph kmh ) Pressure ( in mb ) Visibility ( mi km ) Precip ( " mm )
12:53 am 00:53 Clear 31 -0.6 26 -3.3 82 82 NNE 8 13 30.02 1017 10 16 0.00 0.00
1:53 am 01:53 Clear 29 -1.7 25 -3.9 85 85 N 8 13 30.03 1017 10 16 0.00 0.00
2:53 am 02:53 Clear 30 -1.1 26 -3.3 85 85 N 6 9 30.03 1017 10 16 0.00 0.00
3:53 am 03:53 Partly Cloudy 30 -1.1 26 -3.3 85 85 undefined N/A 30.05 1018 10 16 0.00 0.00
4:53 am 04:53 Clear 30 -1.1 26 -3.3 85 85 undefined N/A 30.05 1018 10 16 0.00 0.00
5:53 am 05:53 Partly Cloudy 29 -1.7 26 -3.3 89 89 N 9 15 30.06 1018 10 16 0.00 0.00
6:05 am 06:05 Mostly Cloudy 31 -0.6 27 -2.8 85 85 N 12 19 30.11 1020 10 16 0.00 0.00
6:40 am 06:40 Cloudy 32 0 28 -2.2 85 85 N 13 20 30.12 1020 10 16 0.00 0.00
6:53 am 06:53 Cloudy 32 0 28 -2.2 85 85 N 15 24 30.08 1019 10 16 0.00 0.00
7:53 am 07:53 Cloudy 33 0.6 29 -1.7 85 85 N 12 19 30.09 1019 10 16 0.00 0.00
8:53 am 08:53 Cloudy 33 0.6 28 -2.2 82 82 N 13 20 30.11 1020 10 16 0.00 0.00
9:53 am 09:53 Cloudy 33 0.6 29 -1.7 85 85 NNE 12 19 30.12 1020 10 16 0.00 0.00
10:53 am 10:53 Cloudy 33 0.6 29 -1.7 85 85 N 8 13 30.14 1021 9 14 0.00 0.00
11:53 am 11:53 Cloudy 33 0.6 28 -2.2 82 82 NNE 10 17 30.14 1021 9 14 0.00 0.00
12:53 pm 12:53 Cloudy 34 1.1 29 -1.7 82 82 NE 8 13 30.12 1020 10 16 0.00 0.00
1:53 pm 13:53 Cloudy 33 0.6 28 -2.2 82 82 NNE 7 11 30.11 1020 9 14 0.00 0.00
2:53 pm 14:53 Cloudy 33 0.6 28 -2.2 82 82 NNE 9 15 30.09 1019 10 16 0.00 0.00
3:53 pm 15:53 Cloudy 32 0 28 -2.2 85 85 ENE 7 11 30.10 1019 10 16 0.00 0.00
4:00 pm 16:00 Cloudy 32 0 28 -2.2 85 85 NE 8 13 30.14 1020 10 16 0.00 0.00
4:53 pm 16:53 Cloudy 31 -0.6 27 -2.8 85 85 N 5 7 30.12 1020 10 16 0.00 0.00
5:53 pm 17:53 Cloudy 31 -0.6 27 -2.8 85 85 NE 8 13 30.13 1020 10 16 0.00 0.00
6:53 pm 18:53 Cloudy 31 -0.6 27 -2.8 85 85 NNE 8 13 30.13 1020 10 16 0.00 0.00
7:53 pm 19:53 Cloudy 31 -0.6 27 -2.8 85 85 NE 9 15 30.14 1021 10 16 0.00 0.00
8:53 pm 20:53 Cloudy 30 -1.1 27 -2.8 88 88 ENE 8 13 30.16 1021 10 16 0.00 0.00
9:53 pm 21:53 Cloudy 30 -1.1 27 -2.8 88 88 E 5 7 30.17 1022 10 16 0.00 0.00
10:53 pm 22:53 Cloudy 29 -1.7 27 -2.8 92 92 ENE 5 7 30.17 1022 9 14 0.00 0.00
11:09 pm 23:09 Cloudy 28 -2 27 -3 93 93 N 6 9 30.22 1023 9 14 0.00 0.00
11:53 pm 23:53 Cloudy 29 -1.7 27 -2.8 92 92 Calm 30.18 1022 8 13 0.00 0.00

Powered by AerisWeather